Regional Weather Roundup
Issued by NWS San Diego, CA

Home | Current Version | Previous Version | Text Only | Print | Product List | Glossary On
Versions: 1 2 3 4 5 6 7 8 9 10 11 12 13 14 15 16 17 18 19 20 21 22 23 24 25 26 27
000
ASUS46 KSGX 211911
RWRSGX

SAN DIEGO HOURLY WEATHER ROUNDUP
NATIONAL WEATHER SERVICE SAN DIEGO CA
1100 AM PST SAT JAN 21 2017

NOTE: "FAIR" INDICATES FEW OR NO CLOUDS BELOW 12,000 FEET WITH NO
SIGNIFICANT WEATHER AND/OR OBSTRUCTIONS TO VISIBILITY.

CAZ042-043-060-061-PZZ750-775-212000-

GREATER SAN DIEGO AREA

CITY           SKY/WX    TMP DP  RH WIND       PRES   REMARKS
SAN DIEGO AP   RAIN      55  47  74 NW7       30.01R
NATIONAL CITY    N/A     58  50  73 N12       30.00R
CHULA VISTA      N/A     58  50  75 W12       29.92R
BROWN FIELD    PTSUNNY  N/A N/A N/A W13G18    29.98R
MIRAMAR MCAS   PTSUNNY   61  46  57 W14G22    29.98R
MONTGOMERY FLD PTSUNNY   56  43  61 NW15G21   29.98R

$$

NORTH SAN DIEGO COUNTY

CITY           SKY/WX    TMP DP  RH WIND       PRES   REMARKS
CAMP PENDLETON LGT RAIN  56  47  71 N3        29.96R
OCEANSIDE AP   MOSUNNY   57  46  66 W9        29.96R
OCEANSIDE HBR    N/A     57  48  71 W10       30.00R
VISTA            N/A     55  48  75 W2        29.96R
CARLSBAD       LGT RAIN  57  45  64 W10G17    29.96R
DEL MAR          N/A     60  49  68 NW3       30.00R
LA JOLLA SCRIP   N/A     56  50  81 SW8       29.98R
FALLBROOK        N/A     55  51  87 CALM      29.95R
ESCONDIDO        N/A     57  47  70 W9        29.99R
SAN MARCOS       N/A     56  48  75 NW14      29.99R
POWAY            N/A     58  46  62 SW3       30.00R

$$

EAST SAN DIEGO COUNTY

CITY           SKY/WX    TMP DP  RH WIND       PRES   REMARKS
RAMONA         PTSUNNY   53  44  71 W14       29.95R
SANTEE LAKES     N/A     58  46  63 W12       29.97R
LA MESA          N/A     54  46  75 SW3       29.93R
JAMUL            N/A     53  46  76 CALM      29.99R
DESCANSO N       N/A     40  38  93 W3        29.94R
CAMPO            N/A     47  40  76 W21G31    29.88R

$$

ORANGE COUNTY AND THE LOS ANGELES BASIN

CITY           SKY/WX    TMP DP  RH WIND       PRES   REMARKS
JOHN WAYNE AP  PTSUNNY   58  45  62 VRB5      29.94R
LAGUNA BEACH     N/A     58  48  70 SW5       29.91R
LAKE FOREST FR   N/A     53  42  66 W3        29.85R
HUNTINGTON BCH   N/A     59  47  65 SW5       29.95R
LOS ALAMITOS   MOSUNNY   58  45  62 W15       29.93R
FULLERTON      SUNNY     59  44  57 VRB7      29.92R
LONG BEACH     MOSUNNY   57  42  57 W16       29.93R
L.A. AP        MOSUNNY   58  46  64 W24       29.92R
L.A. DOWNTOWN  SUNNY     60  42  51 W3        29.91R

$$

THE INLAND EMPIRE

CITY           SKY/WX    TMP DP  RH WIND       PRES   REMARKS
CORONA         MOSUNNY   55  42  61 SW12      29.94R
CHINO          MOSUNNY   56  43  61 NE5       29.94R
ONTARIO        PTSUNNY   50  41  71 S5        29.93R
SAN BERNARDINO MOSUNNY   54  37  54 SW8       29.94R
RIVERSIDE AP   PTSUNNY   53  43  68 E3        29.93R
MORENO VALLEY    N/A     50  45  83 SW3       28.04
MARCH ARB      PTSUNNY   50  41  72 S3        29.92R
HORSETHIEF CYN   N/A     54  35  49 CALM      29.96R
PERRIS           N/A     51  42  73 SE5       29.95R
HEMET EAST       N/A     48  37  66 CALM      30.02R
FRENCH VALLEY  NOT AVBL
TEMECULA         N/A     53  47  79 SW9       30.00R

$$

SAN BERNARDINO AND RIVERSIDE COUNTY MOUNTAINS

CITY           SKY/WX    TMP DP  RH WIND       PRES   REMARKS
BIG BEAR AP    SUNNY     30  19  64 W12G21    29.82R WCI  21
PINE COVE        N/A     29  29 100 CALM      29.99R

$$

SOUTHERN DESERT INCLUDING THE COACHELLA VALLEY

CITY           SKY/WX    TMP DP  RH WIND       PRES   REMARKS
PALM SPRINGS   SUNNY     60  33  36 NW15G22   29.86R
PALM DESERT      N/A     63  37  38 CALM      28.20S
THERMAL        SUNNY     62  37  39 N10       29.85R
BLYTHE         SUNNY     59  37  44 W15       29.84R
IMPERIAL AP    SUNNY     61  43  51 W18G25    29.88R
EL CENTRO NAS  SUNNY     61  41  47 W22       29.91R
YUMA AZ        SUNNY     61  41  47 W18G25    29.89
MEXICALI       SUNNY     61  37  41 W29       29.87

$$

UPPER DESERT

CITY           SKY/WX    TMP DP  RH WIND       PRES   REMARKS
VICTORVILLE AP SUNNY     46  34  61 W21G30    29.86S
HESPERIA         N/A     48  31  52 W1        30.05R
PALMDALE       SUNNY     49  36  61 W23G30    29.88R
LANCASTER      SUNNY     48  35  60 W25G31    29.88R
EDWARDS AFB    MOSUNNY   48  37  65 W29       29.82F
DAGGETT        SUNNY     51  34  52 SW35G41   29.81R
29 PALMS N     MOSUNNY   52  31  44 W28G36    29.87R
NEEDLES        SUNNY     60  31  33 N7        29.79R

$$

REGIONAL REPORTS

CITY           SKY/WX    TMP DP  RH WIND       PRES   REMARKS
SANTA BARBARA  PTSUNNY   57  45  64 W8        29.94R
SANDBERG       MOSUNNY   41  34  76 N12       29.90R
LAS VEGAS NV   MOSUNNY   53  28  38 W8        29.73R
PHOENIX AZ     MOSUNNY   57  38  48 W20       29.78R
TIJUANA        MOSUNNY   57  43  58 W12       30.00

$$

OFFSHORE ISLANDS

CITY           SKY/WX    TMP DP  RH WIND       PRES   REMARKS
CATALINA ARPT  MOSUNNY   51  45  79 W20       29.93R
SAN CLEMENTE I MOSUNNY   58  47  66 W18       29.98R
SAN NICOLAS IS   N/A    N/A N/A N/A MISG      29.99R

$$

MARINE AND OFFSHORE BUOY REPORTS

STATION/POSITION SKY/WX   TEMP    WIND        PRES    VSBY  SWELL
                          AIR SEA DIR/SP/G                  HT/PER/DIR
                          (F)     (DEG/KT/KT) (MB)    (MI)  (FT/S/D)
TANNER BANKS               57 58  300/ 14/ 16 1016.1R        16/310/16
S CLEMENTE BASIN           57 60  290/ 19/ 23 1015.0R        11/290/15
SAN NICOLAS IS.               58                N/A          20/300/15
SO. S. ROSA ISLA           56 57  290/ 10/ 16 1015.3R        25/290/17
W. S. BARBARA CH           55 57  330/ 10/ 14 1014.9R        21/290/17
M. S. BARBARA CH                  280/ 12/ 17 1015.0R
S. MONICA BASIN            56 58  280/ 16/ 19 1014.3R        10/280/16
S PEDRO CHANNEL               59                N/A           7/270/17
CMP PENDLETON NS              59                N/A           5/250/13
OCEANSIDE OFFSHR              59                N/A           5/250/13
TORREY PINES OTR              59                N/A           8/270/13
POINT LOMA SOUTH              60                N/A           8/280/15

$$





USA.gov is the U.S. government's official web portal to all federal, state and local government web resources and services.